Location: Unspecified
(33.6682°S, 0.0000°E)
Time: 11:46:06
(UTC+00:00)

Vanguard 2 Rocket - Pass Details

Date: 20 June 2019
Orbit: 554 x 3326 km, 32.9° (Epoch: 19 July)

Event Time Altitude Azimuth Distance (km) Brightness Sun altitude
Rises 11:03:49 0° 281° (W) 5,889 11.0 31.3°
Reaches altitude 10° 11:08:23 10° 281° (W) 4,432 10.5 31.5°
Maximum altitude 11:19:22 82° 6° (N) 1,255 8.3 32.0°
Drops below altitude 10° 11:25:25 10° 93° (E) 2,543 9.4 32.3°
Sets 11:27:25 0° 94° (E) 3,278 9.8 32.3°
